User: anonymous   Login
Location: Unspecified
(0.0000°N, 0.0000°E)
Time: 19:17:27
(UTC+00:00)
Language:

TBA - TO BE ASSIGNED - Orbit

View from above orbital plane
View from above orbital plane
View from above satellite
View from above satellite

Ground track
Ground track

The orbit is defined by the following mean orbital elements,

1 68961U          26145.58335647 +.00000000 +00000-0 +43093-3 0 00004
2 68961  53.1591 268.7371 0001107  89.6511  45.1675 15.49297280    04
Epoch (UTC): 25 May 2026 14:00:01
Eccentricity: 0.0001107
inclination: 53.1591°
perigee height: 418 km
apogee height: 420 km
right ascension of ascending node: 268.7371°
argument of perigee: 89.6511°
revolutions per day: 15.49297280
mean anomaly at epoch: 45.1675°

The dashed part of the orbit path shows where the satellite is in the earth's shadow,  

DLR